Location: Unspecified
(0.0000°N, 0.0000°E)
Time: 19:17:24
(UTC+00:00)

deb OV3-4 - Pass Details

Date: 16 April 2026
Orbit: 581 x 4210 km, 40.6° (Epoch: 13 May)

Event Time Altitude Azimuth Distance (km) Brightness Sun altitude
Rises 18:10:50 0° 320° (NW) 7,299 ? -2.7°
Reaches altitude 10° 18:16:42 10° 324° (NW) 5,719 ? -4.2°
Maximum altitude 18:31:12 54° 37° (NE) 2,004 ? -7.7°
Enters shadow 18:38:26 10° 113° (ESE) 2,988 ? -9.5°
